Location: Unspecified
(42.9300°N, 71.1866°W)
Time: 23:44:30
(UTC-04:00)

GENESIS II - Visible Passes

Search period start: 31 July 2014 00:00
Search period end: 10 August 2014 00:00
Orbit: 533 x 537 km, 64.5° (Epoch: 31 July)

Date Brightness Start Highest point End Pass type
(mag) Time Alt. Az. Time Alt. Az. Time Alt. Az.
31 Jul 5.2 23:27:09 10° NNW 23:30:17 46° N 23:30:17 46° N visible
01 Aug 6.9 21:41:26 10° NNE 21:42:36 11° NE 21:43:46 10° NE visible
01 Aug 5.0 23:17:27 10° NNW 23:20:38 51° N 23:20:38 51° N visible
02 Aug 6.7 21:31:19 10° N 21:33:02 12° NE 21:34:44 10° ENE visible
02 Aug 4.8 23:07:46 10° NNW 23:11:02 57° NNW 23:11:02 57° NNW visible
03 Aug 6.7 21:21:20 10° N 21:23:27 14° NE 21:25:33 10° ENE visible
03 Aug 4.6 22:58:04 10° NW 23:01:29 62° NW 23:01:29 62° NW visible
04 Aug 6.5 21:11:25 10° N 21:13:51 15° NE 21:16:16 10° ENE visible
04 Aug 4.5 22:48:24 10° NW 22:51:57 64° WNW 22:51:57 64° WNW visible
05 Aug 6.3 21:01:32 10° N 21:04:14 17° NE 21:06:56 10° E visible
05 Aug 4.5 22:38:44 10° NW 22:42:29 60° WSW 22:42:29 60° WSW visible
06 Aug 6.2 20:51:40 10° N 20:54:37 19° NE 20:57:33 10° E visible
06 Aug 4.7 22:29:04 10° NW 22:32:59 52° WSW 22:33:02 52° WSW visible
07 Aug 6.0 20:41:50 10° N 20:44:59 22° NE 20:48:07 10° E visible
07 Aug 4.9 22:19:26 10° NW 22:23:15 43° WSW 22:23:39 42° SW visible
08 Aug 5.8 20:32:00 10° N 20:35:20 24° NE 20:38:39 10° E visible
08 Aug 5.3 22:09:48 10° NW 22:13:31 36° WSW 22:14:18 33° SW visible
09 Aug 5.6 20:22:11 10° NNW 20:25:41 27° NE 20:29:09 10° ESE visible
09 Aug 5.6 22:00:12 10° NW 22:03:46 31° WSW 22:05:00 25° SSW visible
